Location: Alfortville
(48.8058°N, 2.4204°E)
Time: 13:20:34
(UTC+00:00)

Meteor 1-19 Rocket - Pass Details

Date: 14 December 2023
Orbit: 806 x 928 km, 81.2° (Epoch: 01 March)

Event Time Altitude Azimuth Distance (km) Brightness Sun altitude
Exits shadow 03:43:55 - 2° (N) 3,276 7.3 -36.9°
Reaches altitude 10° 03:46:31 10° 19° (NNE) 2,619 7.0 -36.5°
Maximum altitude 03:50:02 16° 55° (NE) 2,205 6.9 -35.9°
Drops below altitude 10° 03:53:30 10° 92° (E) 2,572 7.5 -35.4°
Sets 03:57:00 0° 114° (ESE) 3,483 8.2 -34.8°
